Location: Prairie State College
(41.5244°N, 87.6382°W)
Time: 21:22:38
(UTC-05:00)

MSX - Visible Passes

Search period start: 04 August 2015 00:00
Search period end: 14 August 2015 00:00
Orbit: 894 x 907 km, 98.7° (Epoch: 20 July)

Date Brightness Start Highest point End Pass type
(mag) Time Alt. Az. Time Alt. Az. Time Alt. Az.
04 Aug 5.3 20:38:25 10° SSW 20:43:45 39° W 20:49:03 10° NNW visible
05 Aug 5.4 20:41:18 10° SSW 20:46:33 37° W 20:51:48 10° NNW visible
06 Aug 5.5 20:44:10 10° SSW 20:49:22 35° W 20:54:32 10° NNW visible
07 Aug 5.6 20:47:03 10° SSW 20:52:11 33° W 20:57:15 10° NNW visible
08 Aug 5.7 20:49:57 10° SSW 20:55:00 31° W 20:59:59 10° NW visible
09 Aug 5.8 20:52:51 10° SSW 20:57:49 29° W 21:02:42 10° NW visible
10 Aug 5.8 20:55:46 10° SSW 21:00:38 28° W 21:05:25 10° NW visible
11 Aug 5.9 20:58:40 10° SSW 21:03:27 26° W 21:08:07 10° NW visible
12 Aug 6.0 21:01:36 10° SSW 21:06:16 25° W 21:10:49 10° NW visible
13 Aug 6.1 21:04:33 10° SW 21:09:05 23° W 21:13:30 10° NW visible
